SCP
0 0 0 0 0 0 0 0 0 0 0 0 0 0 0 0 0 0 0 0 0 0 0 0 0 0 0 0 0 0 0 0 0 0 1 0 0 0 0 0 0 0 0 0
0 0 0 0 0 0 0 0 0 0 0 0 0 0 0 0 0 0 0 0 0 0 0 0 0 0 0 0 0 0 0 0 0 0 0 0 0 0 0 0 0 0 0 0
0 0 0 0 0 0 0 0 0 0 0 0 0 0 0 0 0 0 0 0 0 0 0 0 0 0 0 0 0 0 0 0 0 0 0 0 0 0 0 0 0 0 1 0
0 0 0 0 0 0 0 0 0 0 0 0 0 0 0 0 0 0 0 0 0 0 0 0 0 0 0 0 0 0 0 0 0 0 0 0 0 0 0 0 0 0 0 0
0 0 0 0 0 0 0 0 0 0 0 0 0 0 0 0 0 0 0 0 0 0 0 0 0 0 0 0 0 0 0 0 0 0 0 0 0 0 0 0 0 0 0 0
0 0 0 0 0 0 0 0 0 0 0 0 0 0 0 0 0 0 0 0 0 0 0 0 0 0 0 0 0 0 0 0 0 0 0 0 0 0 0 0 0 0 0 0
0 0 0 0 0 0 0 0 0 0 0 0 0 0 0 0 0 0 0 0 0 0 0 0 0 0 0 0 0 0 0 0 0 0 0 0 0 0 0 0 0 0 0 0
0 0 0 0 0 0 0 0 0 0 0 0 0 0 0 0 0 0 0 0 0 0 0 0 0 0 0 0 0 0 0 0 0 0 0 0 0 0 0 0 0 0 0 0
0 0 0 0 0 0 0 0 0 0 0 0 0 0 0 0 0 0 0 0 0 0 0 0 0 0 0 0 0 0 0 0 0 0 0 0 0 0 0 0 0 0 0 0
0 0 0 0 0 0 0 0 0 0 0 0 0 0 0 0 0 0 0 0 0 0 0 0 0 0 0 0 0 0 0 0 0 0 0 0 0 0 0 0 0 0 0 0
0 0 0 0 0 0 0 0 0 0 0 0 0 0 0 0 0 0 0 0 0 0 0 0 0 0 0 0 0 0 0 0 0 0 0 0 0 0 0 0 0 0 0 0
0 0 0 0 0 0 0 0 0 0 0 0 0 0 0 0 0 0 0 0 0 0 0 0 0 0 0 0 0 0 0 0 0 0 0 0 0 0 0 0 0 0 0 0
0 0 0 0 0 0 0 0 0 0 0 0 0 0 0 0 0 0 0 0 0 0 0 0 0 0 0 0 0 0 0 0 0 0 0 0 0 0 0 0 0 0 0 0
0 0 0 0 0 0 0 0 0 0 0 0 0 0 0 0 0 0 0 0 0 0 0 0 0 0 0 0 0 0 0 0 0 0 0 0 0 0 0 0 0 0 0 0
0 0 0 0 0 0 0 0 0 0 0 0 0 0 0 0 0 0 0 0 0 0 0 0 0 0 0 0 0 0 0 0 0 0 0 0 0 0 0 0 0 0 0 0
0 0 0 0 0 0 0 0 0 0 0 0 0 0 0 0 0 0 0 0 0 0 0 0 0 0 0 0 0 0 0 0 0 0 0 0 0 0 0 0 0 0 0 0
0 0 0 0 0 0 0 0 0 0 0 0 0 0 0 0 0 0 0 0 0 0 0 0 0 0 0 0 0 0 0 0 0 0 0 0 0 0 0 0 0 0 0 0
0 0 0 0 0 0 0 0 0 0 0 0 0 0 0 0 0 0 0 0 0 0 0 0 0 0 0 0 0 0 0 0 0 0 0 0 0 0 0 0 0 0 0 0
0 0 0 0 0 0 0 0 0 0 0 0 0 0 0 0 0 0 0 0 0 0 0 0 0 0 0 0 0 0 0 0 0 0 0 0 0 0 0 0 0 0 0 0
0 0 0 0 0 0 0 0 0 0 0 0 0 0 0 0 0 0 0 0 0 0 0 0 0 0 0 0 0 0 0 0 0 0 0 0 0 0 0 0 0 0 0 0
0 0 0 0 0 0 0 0 0 0 0 0 0 0 0 0 0 0 0 0 0 0 0 0 0 0 0 0 0 0 0 0 0 0 0 0 0 0 0 0 0 0 0 0
0 0 0 0 0 0 0 0 0 0 0 0 0 0 0 0 0 0 0 0 0 0 0 0 0 0 0 0 0 0 0 0 0 0 0 0 0 0 0 0 0 0 0 0
0 0 0 0 0 0 0 0 0 0 0 0 0 0 0 0 0 0 0 0 0 0 0 0 0 0 0 0 0 0 0 0 0 0 0 0 0 0 0 0 0 0 0 0
0 0 0 0 0 0 0 0 0 0 0 0 0 0 0 0 0 0 0 0 0 0 0 0 0 0 0 0 0 0 0 0 0 0 0 0 0 0 0 0 0 0 0 0
0 0 0 0 0 0 0 0 0 0 0 0 0 0 0 0 0 0 0 0 0 0 0 0 0 0 0 0 0 0 0 0 0 0 0 0 0 0 0 0 0 0 0 0
0 0 0 0 0 0 0 0 0 0 0 0 0 0 0 0 0 0 0 0 0 0 0 0 0 0 0 0 0 0 0 0 0 0 0 0 0 0 0 0 0 0 0 0
0 0 0 0 0 0 0 0 0 0 0 0 0 0 0 0 0 0 0 0 0 0 0 0 0 0 0 0 0 0 0 0 0 0 0 0 0 0 0 0 0 0 0 0
Wind_Speed
8 6 5 8 10 9 11 11 12 14 14 17 13 10 8 7 7 7 8 7 7 7 6 6 7 7 6 6 5 5 5 5 6 6 6 6 5 5 5 5 6 5 6 6
6 6 8 11 13 14 15 13 15 16 20 15 9 6 6 6 7 8 8 8 7 6 6 6 7 7 7 6 6 5 5 6 6 6 6 5 5 5 5 5 5 5 5 6
5 3 4 12 12 14 11 10 10 15 15 7 6 6 6 6 6 7 8 7 7 6 6 6 6 6 6 6 6 5 6 6 6 6 6 6 6 5 5 5 5 5 5 5
3 1 11 9 5 8 9 11 11 10 9 7 7 6 6 6 6 7 7 7 6 6 6 6 5 6 6 6 5 6 6 6 7 6 7 6 5 5 5 5 5 5 5 5
4 5 10 8 5 7 8 8 8 10 9 7 4 4 5 5 4 6 7 6 6 5 5 4 5 6 6 6 5 6 6 7 7 7 7 7 6 6 5 4 5 5 4 5
5 6 9 8 4 4 3 6 5 5 5 4 1 3 6 4 4 5 6 5 4 4 4 4 5 5 5 6 6 7 7 7 7 7 6 6 7 6 5 4 4 4 5 4
10 9 10 7 3 5 5 8 3 4 5 4 5 7 6 6 6 5 5 5 4 4 4 5 5 5 5 6 6 7 7 7 7 7 6 6 5 5 5 4 4 4 5 4
7 9 12 5 7 8 8 3 3 4 4 5 6 6 6 6 6 5 4 4 4 4 5 5 4 4 6 6 7 7 7 7 7 7 6 5 5 5 4 4 4 4 4 5
10 10 5 5 8 6 3 4 4 4 5 5 6 6 6 5 5 5 4 5 4 4 6 5 4 4 6 7 6 6 7 7 7 6 5 5 4 5 4 3 3 4 4 4
6 9 7 6 5 5 4 5 5 5 5 5 6 6 6 6 5 5 5 4 4 5 6 6 5 5 5 6 6 6 6 7 6 6 6 5 4 3 4 4 3 4 4 4
8 8 6 7 7 7 5 4 4 4 4 4 5 6 5 5 5 5 5 4 4 5 6 7 6 6 5 5 5 6 6 6 6 5 5 5 4 3 4 4 4 4 4 3
10 8 7 6 4 4 4 5 4 4 4 3 3 5 5 5 5 4 5 4 5 5 6 6 5 6 5 5 5 5 6 6 4 4 4 4 4 5 6 6 8 8 8 7
10 7 6 6 5 4 4 5 4 3 4 4 4 4 4 5 5 4 4 4 5 5 5 5 5 6 6 5 5 5 5 5 4 4 4 4 4 4 5 6 8 8 9 9
8 6 6 6 6 4 3 3 2 2 3 3 4 3 3 4 4 4 4 5 5 4 5 5 5 6 6 5 5 5 5 5 5 4 4 4 4 4 4 4 5 5 7 9
6 7 7 4 3 3 2 2 2 3 3 3 2 3 3 3 4 4 4 4 4 4 4 5 5 6 5 5 5 5 4 3 3 3 3 3 3 3 3 4 4 4 5 6
4 3 3 4 5 4 3 3 4 4 3 3 3 3 3 3 3 3 3 3 3 5 5 5 6 6 5 5 5 4 4 6 5 3 3 3 3 3 3 3 3 4 4 5
4 4 4 4 5 5 5 5 4 4 3 3 3 3 2 2 2 3 4 3 4 5 5 5 6 6 5 4 4 3 3 4 5 4 3 3 3 3 3 3 3 4 4 5
4 4 4 4 4 4 3 3 2 2 2 2 2 1 1 2 3 4 4 4 4 4 4 5 5 5 4 4 3 3 3 3 3 3 3 3 3 3 3 3 3 4 4 5
0 1 1 2 2 2 2 1 1 1 1 1 1 1 2 2 3 3 3 3 4 5 5 5 8 5 4 5 5 2 2 3 3 3 3 4 3 3 3 3 3 3 3 4
1 1 1 1 1 1 1 0 0 1 1 1 0 1 2 2 2 3 3 3 3 4 5 6 5 4 4 5 5 2 2 2 3 3 3 2 2 3 3 3 3 3 3 3
1 1 1 1 1 1 1 0 0 1 1 0 1 1 2 3 2 2 3 4 4 4 5 7 5 4 4 5 5 2 2 2 2 2 2 2 3 3 3 3 3 3 3 3
1 1 1 1 1 1 2 1 1 1 1 1 1 1 1 2 3 3 3 3 4 6 5 3 3 5 7 6 3 2 2 2 2 2 2 2 2 3 3 3 3 3 3 3
1 1 1 1 0 1 2 2 1 1 1 1 1 2 2 2 2 3 4 3 3 6 5 3 6 9 9 4 2 2 2 3 2 2 2 2 2 2 2 3 3 3 3 3
1 1 1 1 1 1 1 2 2 1 1 1 2 2 2 2 2 2 3 6 8 8 4 6 9 9 7 3 2 2 2 2 2 2 2 2 2 2 2 2 2 2 2 3
1 1 1 1 1 1 1 1 2 2 1 1 2 2 2 2 2 3 3 4 6 6 4 6 9 8 4 2 2 2 2 2 2 2 2 2 2 2 2 2 2 2 2 2
0 0 0 1 1 1 1 1 1 1 1 2 2 2 2 2 2 3 3 3 4 5 4 4 4 4 3 3 3 3 2 3 3 2 2 2 2 2 2 2 2 2 2 1
0 0 1 1 1 1 1 1 1 2 2 2 3 3 2 2 2 2 3 3 3 3 3 3 3 2 2 3 3 2 2 2 2 2 2 2 2 2 2 2 2 1 1 1
Wind_Direction
248 250 240 240 242 222 220 225 236 253 258 268 273 278 280 281 286 295 298 302 305 306 308 313 316 318 318 315 314 312 309 306 302 303 301 300 297 293 292 289 283 277 270 262
258 247 247 258 250 241 240 238 242 258 266 267 272 270 269 271 278 285 290 294 298 301 303 306 309 312 316 317 316 314 308 303 305 307 307 304 298 295 294 289 288 280 276 265
255 253 287 259 234 227 225 219 217 241 254 269 272 266 261 265 275 281 285 290 293 294 292 296 303 306 308 309 313 316 313 313 313 311 309 303 300 298 294 291 292 285 275 272
244 191 244 247 209 210 228 244 231 241 256 258 260 269 264 258 264 277 281 285 288 291 296 302 306 309 308 312 315 316 317 318 319 316 313 309 303 295 290 289 287 283 279 277
202 235 269 280 240 196 208 254 233 235 253 264 277 308 285 263 255 260 271 276 276 282 291 304 312 314 317 318 319 322 322 323 321 318 315 314 310 303 299 295 291 289 290 288
205 225 247 250 231 177 141 266 244 216 236 254 293 297 280 287 290 284 286 287 289 300 306 308 310 318 319 317 321 321 318 316 314 311 310 310 308 306 307 302 296 301 301 296
223 237 256 248 205 132 190 243 228 197 213 216 215 235 264 289 291 285 288 293 301 308 308 307 314 323 316 316 314 314 316 315 313 313 311 308 309 310 311 310 312 310 306 307
201 226 248 207 150 188 220 218 207 219 223 233 246 263 277 285 288 294 298 299 305 307 304 306 313 317 309 308 311 317 318 317 316 315 316 317 312 312 315 318 321 317 316 317
201 222 238 187 200 219 204 213 224 227 239 243 257 270 280 285 287 289 292 297 304 302 303 306 310 308 301 307 317 319 319 318 317 316 317 314 311 313 317 319 319 318 315 313
241 254 252 248 254 258 236 235 242 241 247 247 258 271 280 284 288 292 295 298 304 307 304 306 313 311 301 309 317 317 317 317 318 318 321 323 320 318 318 318 319 319 320 316
244 260 278 265 243 244 248 251 260 263 251 249 259 269 274 281 284 290 296 299 301 300 299 302 311 312 314 320 323 321 318 316 319 323 322 324 328 325 318 313 315 317 310 303
236 228 218 241 236 224 231 249 255 264 277 273 252 262 273 277 280 285 290 296 300 299 299 303 309 311 316 321 321 318 317 317 317 320 319 323 327 331 336 331 336 336 332 324
239 242 232 248 259 251 244 252 252 248 252 269 271 259 264 273 278 281 287 294 293 296 300 304 308 308 313 316 313 307 305 308 310 313 316 320 323 326 329 340 345 344 345 342
240 243 255 253 252 252 240 245 251 260 259 257 266 270 269 276 283 287 290 293 296 300 304 305 306 306 310 311 309 306 305 304 308 307 312 314 315 317 318 324 332 335 341 344
238 227 232 240 247 253 246 236 252 263 267 273 272 277 278 278 281 287 295 305 308 307 308 309 305 304 309 310 309 308 308 306 306 307 309 311 314 316 319 322 323 325 331 339
229 229 229 235 245 252 250 235 237 255 261 265 275 280 277 275 283 295 304 310 309 304 305 305 300 300 305 308 310 309 306 311 318 315 316 321 326 329 327 326 326 327 328 331
212 232 231 236 241 245 243 239 236 243 251 260 271 284 294 303 308 310 311 309 298 291 294 298 299 304 305 305 304 304 306 306 315 319 318 318 320 321 320 323 326 325 326 333
218 227 225 225 228 236 246 241 233 242 254 264 277 286 286 287 291 299 306 313 315 310 306 306 307 309 309 311 309 304 305 307 313 312 313 315 319 320 321 321 321 323 328 335
261 241 243 229 218 205 218 235 249 262 277 272 269 274 277 280 287 294 303 312 313 312 315 317 323 327 316 312 318 310 310 310 311 311 311 314 323 324 322 319 322 325 328 331
36 37 55 44 55 123 178 249 260 291 291 262 250 289 303 301 302 303 306 299 291 291 301 315 321 320 317 310 318 311 306 303 306 313 315 315 316 317 318 320 323 325 327 329
22 30 42 44 33 26 11 303 250 294 306 287 239 267 284 299 304 303 303 303 304 310 315 322 328 321 315 316 321 318 314 312 310 311 312 313 315 317 321 324 326 325 325 329
26 45 46 53 54 7 357 11 26 356 344 334 309 292 299 307 313 308 288 278 294 316 322 317 317 319 322 326 331 330 325 320 316 316 314 311 312 315 320 323 323 323 324 326
19 36 45 40 55 352 4 11 6 1 326 302 296 293 288 290 293 294 301 304 306 318 323 314 317 322 327 338 337 329 323 320 316 315 313 310 310 310 313 317 319 323 323 325
48 43 44 46 67 59 11 340 341 337 321 308 298 292 292 299 299 284 282 307 318 321 321 319 326 330 336 346 332 324 317 314 311 311 313 313 310 309 310 314 317 320 320 323
67 60 56 54 40 328 294 314 337 343 344 328 314 305 296 279 277 296 304 304 313 324 324 326 332 337 343 331 326 322 319 311 306 310 314 315 309 309 310 309 308 312 316 320
57 15 304 269 256 268 279 291 304 311 315 315 315 311 309 304 299 302 308 310 313 324 326 321 321 330 334 330 328 326 324 320 325 328 320 310 307 310 312 315 318 314 316 322
27 355 345 337 317 289 276 272 281 293 294 293 302 306 307 309 314 319 318 317 318 320 318 318 323 328 329 331 331 327 325 325 326 325 323 320 320 319 319 317 317 316 318 321